CDT,Max TemperatureF,Mean TemperatureF,Min TemperatureF,Max Dew PointF,MeanDew PointF,Min DewpointF,Max Humidity, Mean Humidity, Min Humidity, Max Sea Level PressureIn, Mean Sea Level PressureIn, Min Sea Level PressureIn, Max VisibilityMiles, Mean VisibilityMiles, Min VisibilityMiles, Max Wind SpeedMPH, Mean Wind SpeedMPH, Max Gust SpeedMPH,PrecipitationIn, CloudCover, Events, WindDirDegrees
2013-3-1,34,31,28,28,26,21,93,82,74,30.23,30.15,30.09,10,5,2,14,8,,0.01,8,Snow,318
2013-3-2,33,27,21,22,18,16,81,67,52,30.30,30.26,30.20,10,10,6,14,10,20,0.00,5,Snow,321
2013-3-3,39,28,17,24,18,13,88,62,36,30.25,30.15,30.03,10,10,7,8,2,,0.00,5,,113
2013-3-4,53,44,36,36,30,24,79,60,43,30.03,29.86,29.75,10,10,9,13,8,23,0.00,4,Rain,115
2013-3-5,41,36,30,36,28,21,92,76,55,30.17,29.99,29.80,10,7,0,28,11,43,0.14,8,Fog-Rain-Snow,295
2013-3-6,37,30,24,22,21,19,84,65,52,30.40,30.33,30.15,10,10,10,20,13,30,0.00,6,,312
2013-3-7,48,34,19,28,23,16,89,67,39,30.44,30.38,30.32,10,9,6,9,2,,0.00,1,,106
2013-3-8,53,39,25,30,28,22,88,60,38,30.43,30.34,30.20,10,10,8,13,6,18,0.00,3,Rain,114
2013-3-9,70,56,41,40,34,28,86,51,26,30.18,29.96,29.78,10,9,4,14,7,22,0.29,5,Rain-Thunderstorm,137
2013-3-10,60,52,44,54,47,39,100,82,52,29.79,29.72,29.65,10,8,2,14,6,17,1.03,8,Rain-Thunderstorm,225
2013-3-11,43,40,33,41,30,23,89,78,61,30.03,29.83,29.73,10,10,4,18,13,26,0.00,8,Rain,261
2013-3-12,51,39,28,26,23,21,81,60,36,30.24,30.12,30.02,10,10,10,24,10,33,0.00,2,,275
2013-3-13,43,34,26,23,18,14,78,55,36,30.45,30.37,30.24,10,10,7,20,13,26,0.00,3,Snow,312
2013-3-14,55,40,25,31,24,18,85,59,34,30.42,30.25,30.10,10,10,10,12,3,17,0.00,4,Rain,147
2013-3-15,72,50,28,44,36,25,92,64,29,30.10,29.87,29.66,10,10,8,8,1,,0.00,3,,183
2013-3-16,66,52,39,46,38,34,93,74,43,30.07,29.92,29.63,10,6,2,17,9,24,0.06,6,Rain,5
2013-3-17,39,36,34,34,32,27,93,84,70,30.12,29.98,29.79,10,7,2,15,10,17,0.79,8,Rain-Thunderstorm,65
2013-3-18,51,44,37,37,33,22,93,77,44,30.05,29.80,29.70,10,8,2,21,8,28,0.03,6,Rain,303
2013-3-19,46,37,28,27,19,11,79,52,24,30.24,30.18,30.06,10,10,10,13,6,18,0.00,2,,282
2013-3-20,36,30,23,28,17,10,85,58,36,30.32,30.23,30.15,10,10,10,20,11,28,0.00,3,,300
2013-3-21,37,28,19,18,13,10,74,52,36,30.16,30.09,30.01,10,10,10,10,3,,0.00,3,,38
2013-3-22,42,37,32,26,21,18,61,53,43,30.07,30.03,30.00,10,10,10,9,5,,0.00,8,,98
2013-3-23,54,45,37,36,27,20,76,53,35,30.06,29.96,29.84,10,10,5,14,7,21,0.02,7,Rain,64
2013-3-24,41,37,32,36,30,28,93,89,76,29.88,29.71,29.59,8,2,0,22,13,32,0.54,8,Fog-Rain-Snow-Thunderstorm,346
2013-3-25,36,32,28,28,26,23,93,80,60,30.23,29.98,29.85,10,5,2,20,14,29,0.01,8,Snow,289
2013-3-26,39,32,25,24,22,20,85,65,46,30.39,30.33,30.23,10,10,10,14,8,18,0.00,5,,292
2013-3-27,46,32,19,31,23,16,92,68,34,30.43,30.38,30.32,10,10,10,7,1,,0.00,4,,63
2013-3-28,57,46,36,36,31,25,76,57,45,30.37,30.30,30.23,10,10,10,12,5,18,0.00,6,,93
2013-3-29,63,50,37,43,40,35,93,70,48,30.25,30.22,30.18,10,10,5,8,5,,0.00,1,,74
2013-3-30,54,44,33,46,38,32,100,90,59,30.20,30.10,29.92,10,3,0,12,1,18,0.10,4,Fog-Rain,124
2013-3-31,69,57,46,49,43,33,100,73,27,29.95,29.89,29.84,10,6,1,14,3,24,0.01,6,,285